QPF
0.00 0.00 0.00 0.00 0.00 0.00 0.00 0.00 0.00 0.00 0.00 0.00 0.00 0.00 0.00 0.00 0.00 0.00 0.00 0.00 0.00 0.00 0.00 0.00 0.00 0.00 0.00 0.00 0.00 0.00 0.00 0.00 0.00 0.00 0.00 0.00 0.00 0.00 0.00 0.00 0.00 0.00 0.00 0.00 0.00 0.00 0.00 0.00 0.00 0.01 0.01 0.02 0.00 0.00
0.00 0.00 0.00 0.00 0.00 0.00 0.00 0.00 0.00 0.00 0.00 0.00 0.00 0.00 0.00 0.00 0.00 0.00 0.00 0.00 0.00 0.00 0.00 0.00 0.00 0.00 0.00 0.00 0.00 0.00 0.00 0.00 0.00 0.00 0.00 0.00 0.00 0.00 0.00 0.00 0.00 0.00 0.00 0.00 0.00 0.00 0.00 0.01 0.00 0.01 0.00 0.00 0.00 0.00
0.00 0.00 0.00 0.00 0.00 0.00 0.00 0.00 0.00 0.00 0.00 0.00 0.00 0.00 0.00 0.00 0.00 0.00 0.00 0.00 0.00 0.00 0.00 0.00 0.00 0.00 0.00 0.00 0.00 0.00 0.00 0.00 0.00 0.00 0.00 0.00 0.00 0.00 0.00 0.00 0.00 0.00 0.00 0.00 0.00 0.00 0.00 0.00 0.00 0.00 0.00 0.00 0.00 0.00
0.00 0.00 0.00 0.00 0.00 0.00 0.00 0.00 0.00 0.00 0.00 0.00 0.00 0.00 0.00 0.00 0.00 0.00 0.00 0.00 0.00 0.00 0.00 0.00 0.00 0.00 0.00 0.00 0.00 0.00 0.00 0.00 0.00 0.00 0.00 0.00 0.00 0.00 0.00 0.00 0.00 0.00 0.00 0.00 0.00 0.00 0.00 0.00 0.00 0.00 0.00 0.00 0.00 0.00
0.00 0.00 0.00 0.00 0.00 0.00 0.00 0.00 0.00 0.00 0.00 0.00 0.00 0.00 0.00 0.00 0.00 0.00 0.00 0.00 0.00 0.00 0.00 0.00 0.00 0.00 0.00 0.00 0.00 0.00 0.00 0.00 0.00 0.00 0.00 0.00 0.00 0.00 0.00 0.00 0.00 0.00 0.00 0.00 0.00 0.00 0.00 0.00 0.00 0.00 0.00 0.00 0.00 0.00
0.00 0.00 0.00 0.00 0.00 0.00 0.00 0.00 0.00 0.00 0.00 0.00 0.00 0.00 0.00 0.00 0.00 0.00 0.00 0.00 0.00 0.00 0.00 0.00 0.00 0.00 0.00 0.00 0.00 0.00 0.00 0.00 0.00 0.00 0.00 0.00 0.00 0.00 0.00 0.00 0.00 0.00 0.00 0.00 0.00 0.00 0.00 0.00 0.00 0.00 0.00 0.00 0.00 0.00
0.00 0.00 0.00 0.00 0.00 0.00 0.00 0.00 0.00 0.00 0.00 0.00 0.00 0.00 0.00 0.00 0.00 0.00 0.00 0.00 0.00 0.00 0.00 0.00 0.00 0.00 0.00 0.00 0.00 0.00 0.00 0.00 0.00 0.00 0.00 0.00 0.00 0.00 0.00 0.00 0.00 0.00 0.00 0.00 0.00 0.00 0.00 0.00 0.00 0.00 0.00 0.00 0.00 0.00
0.00 0.00 0.00 0.00 0.00 0.00 0.00 0.00 0.00 0.00 0.00 0.00 0.00 0.00 0.00 0.00 0.00 0.00 0.00 0.00 0.00 0.00 0.00 0.00 0.00 0.00 0.00 0.00 0.00 0.00 0.00 0.00 0.00 0.00 0.00 0.00 0.00 0.00 0.00 0.00 0.00 0.00 0.00 0.00 0.00 0.00 0.00 0.00 0.00 0.00 0.00 0.00 0.00 0.00
0.00 0.00 0.00 0.00 0.00 0.00 0.00 0.00 0.00 0.00 0.00 0.00 0.00 0.00 0.00 0.00 0.00 0.00 0.00 0.00 0.00 0.00 0.00 0.00 0.00 0.00 0.00 0.00 0.00 0.00 0.00 0.00 0.00 0.00 0.00 0.00 0.00 0.00 0.00 0.00 0.00 0.00 0.00 0.00 0.00 0.00 0.00 0.00 0.00 0.00 0.00 0.00 0.00 0.00
0.00 0.00 0.00 0.00 0.00 0.00 0.00 0.00 0.00 0.00 0.00 0.00 0.00 0.00 0.00 0.00 0.00 0.00 0.00 0.00 0.00 0.00 0.00 0.00 0.00 0.00 0.00 0.00 0.00 0.00 0.00 0.00 0.00 0.00 0.00 0.00 0.00 0.00 0.00 0.00 0.00 0.00 0.00 0.00 0.00 0.00 0.00 0.00 0.00 0.00 0.00 0.00 0.00 0.00
0.00 0.00 0.00 0.00 0.00 0.00 0.00 0.00 0.00 0.00 0.00 0.00 0.00 0.00 0.00 0.00 0.00 0.00 0.00 0.00 0.00 0.00 0.00 0.00 0.00 0.00 0.00 0.00 0.00 0.00 0.00 0.00 0.00 0.00 0.00 0.00 0.00 0.00 0.00 0.00 0.00 0.00 0.00 0.00 0.00 0.00 0.00 0.00 0.00 0.00 0.00 0.00 0.00 0.00
0.00 0.00 0.00 0.00 0.00 0.00 0.00 0.00 0.00 0.00 0.00 0.00 0.00 0.00 0.00 0.00 0.00 0.00 0.00 0.00 0.00 0.00 0.00 0.00 0.00 0.00 0.00 0.00 0.00 0.00 0.00 0.00 0.00 0.00 0.00 0.00 0.00 0.00 0.00 0.00 0.00 0.00 0.00 0.00 0.00 0.00 0.00 0.00 0.00 0.00 0.00 0.00 0.00 0.00
0.00 0.00 0.00 0.00 0.00 0.00 0.00 0.00 0.00 0.00 0.00 0.00 0.00 0.00 0.00 0.00 0.00 0.00 0.00 0.00 0.00 0.00 0.00 0.00 0.00 0.00 0.00 0.00 0.00 0.00 0.00 0.00 0.00 0.00 0.00 0.00 0.00 0.00 0.00 0.00 0.00 0.00 0.00 0.00 0.00 0.00 0.00 0.00 0.00 0.00 0.00 0.00 0.00 0.00
0.00 0.00 0.00 0.00 0.00 0.00 0.00 0.00 0.00 0.00 0.00 0.00 0.00 0.00 0.00 0.00 0.00 0.00 0.00 0.00 0.00 0.00 0.00 0.00 0.00 0.00 0.00 0.00 0.00 0.00 0.00 0.00 0.00 0.00 0.00 0.00 0.00 0.00 0.00 0.00 0.00 0.00 0.00 0.00 0.00 0.00 0.00 0.00 0.00 0.00 0.00 0.00 0.00 0.00
0.00 0.00 0.00 0.00 0.00 0.00 0.00 0.00 0.00 0.00 0.00 0.00 0.00 0.00 0.00 0.00 0.00 0.00 0.00 0.00 0.00 0.00 0.00 0.00 0.00 0.00 0.00 0.00 0.00 0.00 0.00 0.00 0.00 0.00 0.00 0.00 0.00 0.00 0.00 0.00 0.00 0.00 0.00 0.00 0.00 0.00 0.00 0.00 0.00 0.00 0.00 0.00 0.00 0.00
0.00 0.01 0.01 0.00 0.00 0.00 0.00 0.00 0.00 0.00 0.00 0.00 0.00 0.00 0.00 0.00 0.00 0.00 0.00 0.00 0.00 0.00 0.00 0.00 0.00 0.00 0.00 0.00 0.00 0.00 0.00 0.00 0.00 0.00 0.00 0.00 0.00 0.00 0.00 0.00 0.00 0.00 0.00 0.00 0.00 0.00 0.00 0.00 0.00 0.00 0.00 0.00 0.00 0.00
0.01 0.01 0.00 0.00 0.00 0.00 0.00 0.00 0.00 0.00 0.00 0.00 0.00 0.00 0.00 0.00 0.00 0.00 0.00 0.00 0.00 0.00 0.00 0.00 0.00 0.00 0.00 0.00 0.00 0.00 0.00 0.00 0.00 0.00 0.00 0.00 0.00 0.00 0.00 0.00 0.00 0.00 0.00 0.00 0.00 0.00 0.00 0.00 0.00 0.00 0.00 0.00 0.00 0.00
0.00 0.00 0.00 0.00 0.00 0.00 0.00 0.00 0.00 0.00 0.00 0.00 0.00 0.00 0.00 0.00 0.00 0.00 0.00 0.00 0.00 0.00 0.00 0.00 0.00 0.00 0.00 0.00 0.00 0.00 0.00 0.00 0.00 0.00 0.00 0.00 0.00 0.00 0.00 0.00 0.00 0.00 0.00 0.00 0.00 0.00 0.00 0.00 0.00 0.00 0.00 0.00 0.00 0.00
0.00 0.00 0.00 0.00 0.00 0.00 0.00 0.00 0.00 0.00 0.00 0.00 0.00 0.00 0.00 0.00 0.00 0.00 0.00 0.00 0.00 0.00 0.00 0.00 0.00 0.00 0.00 0.00 0.00 0.00 0.00 0.00 0.00 0.00 0.00 0.00 0.00 0.00 0.00 0.00 0.00 0.00 0.00 0.00 0.00 0.00 0.00 0.00 0.00 0.00 0.00 0.00 0.00 0.00
0.00 0.01 0.00 0.00 0.00 0.00 0.00 0.00 0.00 0.00 0.00 0.00 0.00 0.00 0.00 0.00 0.00 0.00 0.00 0.00 0.00 0.00 0.00 0.00 0.00 0.00 0.00 0.00 0.00 0.00 0.00 0.00 0.00 0.00 0.00 0.00 0.00 0.00 0.00 0.00 0.00 0.00 0.00 0.00 0.00 0.00 0.00 0.00 0.00 0.00 0.00 0.00 0.00 0.00
0.01 0.01 0.00 0.00 0.00 0.00 0.00 0.01 0.00 0.00 0.00 0.00 0.00 0.00 0.00 0.00 0.00 0.00 0.00 0.00 0.00 0.00 0.00 0.00 0.00 0.00 0.00 0.00 0.00 0.00 0.00 0.00 0.00 0.00 0.00 0.00 0.00 0.00 0.00 0.00 0.00 0.00 0.00 0.00 0.00 0.00 0.00 0.00 0.00 0.00 0.00 0.00 0.00 0.00
0.00 0.00 0.00 0.00 0.00 0.00 0.00 0.00 0.00 0.00 0.00 0.00 0.00 0.00 0.00 0.00 0.00 0.00 0.00 0.00 0.00 0.00 0.00 0.00 0.00 0.00 0.00 0.00 0.00 0.00 0.00 0.00 0.00 0.00 0.00 0.00 0.00 0.00 0.00 0.00 0.00 0.00 0.00 0.00 0.00 0.00 0.00 0.00 0.00 0.00 0.00 0.00 0.00 0.00
0.00 0.00 0.00 0.00 0.00 0.00 0.00 0.00 0.00 0.00 0.00 0.00 0.00 0.00 0.00 0.00 0.00 0.00 0.00 0.00 0.00 0.00 0.00 0.00 0.00 0.00 0.00 0.00 0.00 0.00 0.00 0.00 0.00 0.00 0.00 0.00 0.00 0.00 0.00 0.00 0.00 0.00 0.00 0.00 0.00 0.00 0.00 0.00 0.00 0.00 0.00 0.00 0.00 0.00
0.00 0.00 0.00 0.00 0.00 0.00 0.02 0.02 0.00 0.00 0.00 0.00 0.00 0.00 0.00 0.00 0.00 0.00 0.00 0.00 0.00 0.00 0.00 0.00 0.00 0.00 0.00 0.00 0.00 0.00 0.00 0.00 0.00 0.00 0.00 0.00 0.00 0.00 0.00 0.00 0.00 0.00 0.00 0.00 0.00 0.00 0.00 0.00 0.00 0.00 0.00 0.00 0.00 0.00
0.00 0.00 0.00 0.00 0.01 0.00 0.01 0.01 0.00 0.00 0.00 0.00 0.00 0.00 0.00 0.00 0.00 0.00 0.00 0.00 0.00 0.00 0.00 0.00 0.00 0.00 0.00 0.00 0.00 0.00 0.00 0.00 0.00 0.00 0.00 0.00 0.00 0.00 0.00 0.00 0.00 0.00 0.00 0.00 0.00 0.00 0.00 0.00 0.00 0.00 0.00 0.00 0.00 0.00
0.00 0.00 0.00 0.00 0.00 0.00 0.00 0.00 0.00 0.00 0.00 0.00 0.00 0.00 0.00 0.00 0.00 0.00 0.00 0.00 0.00 0.00 0.00 0.00 0.00 0.00 0.00 0.00 0.00 0.00 0.00 0.00 0.00 0.00 0.00 0.00 0.00 0.00 0.00 0.00 0.00 0.00 0.00 0.00 0.00 0.00 0.00 0.00 0.00 0.00 0.00 0.00 0.00 0.00
0.01 0.00 0.00 0.00 0.00 0.00 0.00 0.00 0.00 0.00 0.00 0.00 0.00 0.00 0.00 0.00 0.00 0.00 0.00 0.00 0.00 0.00 0.00 0.00 0.00 0.00 0.00 0.00 0.00 0.00 0.00 0.00 0.00 0.00 0.00 0.00 0.00 0.00 0.00 0.00 0.00 0.00 0.00 0.00 0.00 0.00 0.00 0.00 0.00 0.00 0.00 0.00 0.00 0.00
0.01 0.00 0.00 0.00 0.00 0.00 0.00 0.00 0.00 0.00 0.00 0.00 0.00 0.00 0.00 0.00 0.00 0.00 0.00 0.00 0.00 0.00 0.00 0.00 0.00 0.00 0.00 0.00 0.00 0.00 0.00 0.00 0.00 0.00 0.00 0.00 0.00 0.00 0.00 0.00 0.00 0.00 0.00 0.00 0.00 0.00 0.00 0.00 0.00 0.00 0.00 0.00 0.00 0.00
0.01 0.00 0.00 0.00 0.00 0.00 0.00 0.00 0.00 0.00 0.00 0.00 0.00 0.00 0.00 0.00 0.00 0.00 0.00 0.00 0.00 0.00 0.00 0.00 0.00 0.00 0.00 0.00 0.00 0.00 0.00 0.00 0.00 0.00 0.00 0.00 0.00 0.00 0.00 0.00 0.00 0.00 0.00 0.00 0.00 0.00 0.00 0.00 0.00 0.00 0.00 0.00 0.00 0.00
0.01 0.01 0.01 0.00 0.00 0.00 0.00 0.00 0.00 0.00 0.00 0.00 0.00 0.00 0.00 0.00 0.00 0.00 0.00 0.00 0.00 0.00 0.00 0.00 0.00 0.00 0.00 0.00 0.00 0.00 0.00 0.00 0.00 0.00 0.00 0.00 0.00 0.00 0.00 0.00 0.00 0.00 0.00 0.00 0.00 0.00 0.00 0.00 0.00 0.00 0.00 0.00 0.00 0.00
0.01 0.01 0.01 0.00 0.00 0.00 0.00 0.00 0.00 0.00 0.00 0.00 0.00 0.00 0.00 0.00 0.00 0.00 0.00 0.00 0.00 0.00 0.00 0.00 0.00 0.00 0.00 0.00 0.00 0.00 0.00 0.00 0.00 0.00 0.00 0.00 0.00 0.00 0.00 0.00 0.00 0.00 0.00 0.00 0.00 0.00 0.00 0.00 0.00 0.00 0.00 0.00 0.00 0.00
0.02 0.02 0.01 0.00 0.00 0.00 0.00 0.00 0.00 0.00 0.00 0.00 0.00 0.00 0.00 0.00 0.00 0.00 0.00 0.00 0.00 0.00 0.00 0.00 0.00 0.00 0.00 0.00 0.00 0.00 0.00 0.00 0.00 0.00 0.00 0.00 0.00 0.00 0.00 0.00 0.00 0.00 0.00 0.00 0.00 0.00 0.00 0.00 0.00 0.00 0.00 0.00 0.00 0.00
0.02 0.02 0.01 0.01 0.00 0.00 0.00 0.00 0.00 0.00 0.00 0.00 0.00 0.00 0.00 0.00 0.00 0.00 0.00 0.00 0.00 0.00 0.00 0.00 0.00 0.00 0.00 0.00 0.00 0.00 0.00 0.00 0.00 0.00 0.00 0.00 0.00 0.00 0.00 0.00 0.00 0.00 0.00 0.00 0.00 0.00 0.00 0.00 0.00 0.00 0.00 0.00 0.00 0.00
MSLP
1024.95 1025.13 1025.30 1025.28 1025.30 1025.23 1025.05 1024.89 1024.70 1024.54 1024.38 1024.21 1023.97 1023.65 1023.32 1023.04 1022.75 1022.36 1022.53 1022.03 1022.41 1023.30 1024.20 1024.22 1024.08 1023.65 1023.26 1022.78 1022.80 1023.28 1023.10 1022.96 1023.27 1023.36 1024.04 1024.55 1025.00 1025.93 1026.73 1027.22 1027.65 1027.67 1027.68 1027.99 1028.13 1029.14 1030.75 1030.84 1030.22 1030.24 1030.62 1029.97 1029.27 1028.96
1025.27 1025.51 1025.73 1025.67 1025.76 1025.67 1025.45 1025.37 1025.19 1025.06 1024.97 1024.79 1024.57 1024.27 1023.92 1023.71 1023.39 1023.04 1023.03 1023.32 1023.32 1023.80 1024.66 1024.89 1024.59 1024.39 1024.20 1024.04 1023.88 1023.52 1023.78 1023.95 1024.27 1024.09 1024.09 1024.58 1024.97 1025.59 1026.14 1026.79 1027.42 1027.98 1028.73 1029.11 1029.65 1030.52 1030.63 1030.41 1030.26 1029.87 1029.23 1028.93 1028.52 1028.40
1025.58 1025.85 1026.12 1026.03 1026.14 1026.10 1025.91 1025.82 1025.70 1025.58 1025.49 1025.36 1025.14 1024.87 1024.53 1024.24 1024.01 1023.70 1023.59 1023.64 1023.74 1023.97 1024.57 1024.81 1024.74 1024.62 1024.24 1024.10 1024.02 1023.50 1024.03 1024.14 1024.17 1023.85 1024.15 1024.62 1025.12 1025.21 1025.82 1026.65 1026.90 1027.47 1027.63 1028.55 1029.33 1029.54 1029.48 1028.87 1028.72 1028.49 1028.22 1028.09 1027.90 1027.72
1025.84 1026.12 1026.39 1026.45 1026.46 1026.50 1026.34 1026.20 1026.21 1026.12 1026.01 1025.92 1025.81 1025.52 1025.34 1025.23 1024.94 1024.54 1024.68 1024.70 1024.10 1024.31 1024.96 1025.46 1025.02 1024.79 1024.57 1024.19 1024.11 1024.09 1024.28 1024.28 1024.10 1023.96 1024.20 1024.56 1025.08 1025.53 1025.98 1026.44 1026.73 1026.75 1026.93 1027.42 1028.02 1028.21 1028.79 1028.12 1028.10 1027.96 1027.59 1027.54 1027.42 1027.25
1025.99 1026.35 1026.60 1026.80 1026.83 1026.81 1026.72 1026.60 1026.62 1026.60 1026.47 1026.44 1026.39 1026.27 1026.02 1025.87 1025.72 1025.29 1025.35 1025.26 1025.05 1025.10 1024.76 1025.24 1025.16 1025.14 1024.92 1024.71 1024.51 1024.39 1024.38 1024.34 1024.50 1024.54 1024.56 1024.76 1025.08 1025.38 1025.71 1026.17 1026.91 1026.90 1027.00 1027.22 1027.74 1027.69 1027.63 1027.72 1027.65 1027.42 1027.15 1027.17 1027.13 1026.93
1026.04 1026.44 1026.71 1027.01 1027.12 1027.13 1027.03 1027.01 1027.00 1027.03 1026.87 1026.83 1026.81 1026.71 1026.47 1026.24 1025.96 1025.81 1026.36 1025.67 1025.85 1024.83 1024.98 1025.10 1025.49 1025.21 1025.05 1024.85 1024.80 1024.72 1024.50 1024.36 1024.40 1024.49 1024.77 1025.39 1025.79 1025.73 1025.30 1025.77 1026.56 1026.78 1026.80 1026.97 1027.22 1027.23 1027.12 1027.14 1027.00 1027.10 1026.96 1026.87 1026.80 1026.73
1026.03 1026.46 1026.79 1027.07 1027.35 1027.41 1027.34 1027.30 1027.36 1027.38 1027.24 1027.22 1027.11 1026.97 1026.77 1026.49 1026.30 1026.95 1027.26 1027.11 1026.88 1026.10 1025.35 1025.20 1025.19 1025.28 1025.26 1024.71 1024.66 1024.57 1024.63 1024.70 1024.72 1024.94 1024.72 1024.99 1025.31 1025.64 1025.37 1025.18 1025.85 1026.26 1026.49 1026.71 1026.78 1026.65 1026.85 1026.61 1026.60 1026.78 1026.72 1026.80 1026.49 1026.55
1025.87 1026.44 1026.81 1027.13 1027.43 1027.63 1027.62 1027.58 1027.65 1027.66 1027.61 1027.48 1027.53 1027.33 1027.24 1027.02 1027.30 1027.42 1027.26 1027.31 1027.17 1026.14 1025.61 1025.22 1025.13 1025.18 1025.28 1024.58 1024.72 1024.89 1024.53 1024.50 1024.89 1024.80 1024.82 1024.64 1025.05 1024.93 1024.97 1024.91 1025.36 1025.74 1026.04 1026.34 1026.49 1026.47 1026.43 1026.32 1026.37 1026.61 1026.68 1026.87 1026.67 1026.68
1025.72 1026.26 1026.76 1027.13 1027.46 1027.74 1027.84 1027.82 1027.96 1027.92 1027.93 1027.82 1027.76 1027.55 1027.32 1027.23 1027.49 1027.41 1027.79 1027.47 1026.72 1026.59 1025.87 1025.19 1024.85 1024.90 1025.20 1024.71 1024.79 1025.01 1025.06 1024.91 1025.03 1024.62 1024.45 1024.88 1024.25 1024.16 1023.89 1024.23 1024.72 1025.16 1025.49 1025.64 1026.00 1026.03 1025.96 1026.19 1026.39 1026.59 1026.76 1026.98 1026.93 1026.91
1025.51 1026.04 1026.59 1027.03 1027.47 1027.75 1027.98 1027.98 1028.20 1028.28 1028.10 1027.97 1027.49 1028.11 1027.91 1027.85 1028.05 1027.89 1027.46 1027.38 1027.29 1026.69 1025.90 1025.09 1023.83 1024.53 1024.90 1024.78 1024.83 1025.06 1025.11 1024.97 1024.85 1024.41 1024.54 1024.53 1023.39 1022.77 1022.97 1023.44 1024.09 1024.67 1025.09 1025.43 1025.67 1025.75 1025.95 1026.21 1026.37 1026.64 1026.80 1027.01 1027.01 1027.12
1025.23 1025.72 1026.31 1026.79 1027.32 1027.75 1027.99 1028.10 1028.21 1028.48 1028.54 1028.06 1028.31 1027.88 1027.41 1028.09 1027.66 1027.31 1027.77 1027.63 1026.95 1026.24 1025.29 1024.34 1023.82 1024.27 1024.93 1024.73 1024.67 1025.14 1025.26 1024.74 1024.56 1024.22 1024.28 1023.23 1022.06 1021.69 1022.25 1022.83 1023.46 1024.16 1024.65 1025.04 1025.25 1025.74 1025.99 1026.19 1026.30 1026.49 1026.71 1026.89 1027.00 1027.06
1024.87 1025.33 1025.94 1026.46 1027.06 1027.59 1028.00 1028.16 1028.19 1028.36 1028.05 1027.85 1027.20 1026.98 1027.30 1027.45 1027.39 1027.39 1026.82 1026.24 1025.56 1024.19 1023.86 1023.56 1023.81 1023.94 1024.84 1024.93 1025.02 1025.50 1025.08 1024.88 1024.19 1024.10 1023.84 1022.15 1020.46 1020.57 1021.48 1022.21 1022.91 1023.66 1024.22 1024.64 1025.03 1025.33 1025.67 1025.96 1026.25 1026.53 1026.64 1026.72 1026.94 1026.98
1024.31 1024.96 1025.55 1026.09 1026.64 1027.35 1027.84 1028.18 1028.22 1027.93 1027.83 1027.52 1027.45 1027.01 1026.94 1027.26 1026.90 1025.93 1024.77 1024.01 1023.31 1022.80 1023.00 1023.19 1023.77 1024.26 1025.07 1025.10 1025.23 1025.38 1025.13 1024.48 1024.21 1023.61 1022.13 1020.52 1019.81 1020.09 1020.94 1021.71 1022.53 1023.28 1023.84 1024.35 1024.70 1025.08 1025.47 1025.81 1026.05 1026.41 1026.50 1026.63 1026.97 1027.10
1023.65 1024.49 1025.17 1025.81 1026.24 1026.97 1027.62 1028.08 1028.35 1028.39 1028.19 1027.43 1027.24 1026.71 1025.78 1025.21 1024.13 1022.53 1021.71 1020.98 1021.23 1021.76 1022.46 1023.30 1023.79 1024.26 1024.50 1024.92 1025.21 1025.09 1024.62 1024.32 1023.40 1022.02 1020.29 1019.28 1019.29 1019.82 1020.61 1021.33 1022.06 1022.72 1023.37 1023.92 1024.39 1024.73 1024.99 1025.31 1025.68 1025.97 1026.35 1026.54 1026.96 1027.08
1023.18 1023.94 1024.87 1025.51 1026.04 1026.56 1027.33 1027.97 1028.40 1028.30 1027.08 1026.49 1025.63 1024.36 1022.93 1022.02 1021.48 1020.93 1020.56 1020.90 1020.98 1021.67 1022.25 1023.13 1023.93 1024.34 1024.54 1024.69 1024.91 1024.47 1024.19 1023.13 1021.66 1019.77 1018.94 1018.54 1019.10 1019.63 1020.35 1021.09 1021.73 1022.34 1022.90 1023.43 1023.85 1024.20 1024.51 1024.82 1025.15 1025.49 1025.74 1025.95 1026.16 1026.40
1022.68 1023.74 1024.41 1025.05 1025.83 1026.44 1027.17 1028.06 1028.52 1027.73 1026.11 1025.36 1023.91 1022.45 1021.37 1020.79 1020.86 1020.76 1020.74 1020.70 1020.97 1021.40 1022.12 1022.69 1023.26 1023.90 1023.92 1023.87 1023.76 1023.18 1022.53 1020.85 1019.32 1018.81 1018.59 1018.78 1019.20 1019.74 1020.33 1020.94 1021.51 1021.99 1022.46 1022.89 1023.26 1023.59 1023.85 1024.10 1024.39 1024.67 1024.86 1025.04 1025.30 1025.82
1021.88 1022.17 1023.14 1024.31 1025.57 1026.56 1027.07 1027.44 1027.63 1026.39 1025.31 1023.12 1021.96 1021.44 1020.85 1020.56 1020.40 1020.63 1020.57 1020.38 1020.93 1021.05 1021.34 1021.95 1022.44 1022.48 1022.79 1022.67 1021.94 1021.07 1020.08 1019.07 1018.85 1018.87 1018.80 1018.91 1019.00 1019.42 1020.01 1020.61 1021.18 1021.62 1021.99 1022.33 1022.59 1022.82 1023.07 1023.38 1023.69 1023.97 1024.17 1024.38 1024.61 1024.91
1020.56 1021.71 1022.40 1023.68 1025.03 1026.25 1027.01 1026.47 1025.70 1024.54 1022.76 1021.63 1021.09 1020.85 1020.75 1020.07 1019.86 1020.04 1020.02 1019.96 1020.61 1020.56 1020.83 1021.00 1021.13 1021.39 1021.19 1020.55 1019.68 1018.92 1018.71 1018.69 1018.78 1018.90 1018.92 1019.13 1019.15 1019.43 1019.84 1020.23 1020.72 1021.21 1021.59 1021.88 1022.10 1022.30 1022.54 1022.77 1023.00 1023.23 1023.48 1023.68 1023.82 1023.99
1019.64 1020.55 1021.52 1022.66 1023.95 1025.24 1025.86 1025.30 1024.24 1022.28 1020.74 1020.52 1020.60 1020.32 1020.01 1019.78 1019.28 1019.30 1019.32 1019.52 1020.12 1020.18 1020.38 1020.35 1020.38 1019.61 1019.23 1018.70 1018.52 1018.08 1018.06 1018.35 1018.60 1018.83 1019.02 1019.26 1019.47 1019.59 1019.82 1020.09 1020.33 1020.67 1020.98 1021.30 1021.58 1021.75 1021.91 1022.12 1022.33 1022.56 1022.70 1022.85 1022.87 1022.94
1018.85 1019.77 1020.61 1021.94 1023.23 1024.15 1024.56 1024.05 1023.32 1021.98 1019.85 1019.51 1019.84 1019.99 1019.44 1019.03 1018.97 1018.90 1018.82 1018.97 1019.75 1019.88 1019.79 1018.84 1018.61 1018.24 1018.17 1017.83 1017.57 1017.64 1017.54 1017.96 1018.20 1018.49 1018.77 1019.01 1019.31 1019.51 1019.70 1019.83 1019.96 1020.17 1020.46 1020.77 1020.99 1021.21 1021.32 1021.47 1021.61 1021.78 1021.96 1022.22 1022.46 1022.57
1018.75 1018.86 1020.42 1021.32 1022.42 1022.87 1022.67 1022.06 1021.71 1020.45 1019.66 1019.11 1018.99 1019.33 1019.01 1018.59 1018.37 1018.37 1018.57 1018.66 1019.05 1018.71 1018.17 1017.70 1017.91 1018.02 1017.55 1017.41 1017.30 1017.27 1017.25 1017.42 1017.74 1018.17 1018.35 1018.66 1018.77 1018.98 1019.09 1019.28 1019.56 1019.68 1019.85 1020.10 1020.38 1020.72 1021.06 1020.79 1020.96 1021.20 1021.35 1021.52 1021.69 1021.89
1017.58 1018.55 1020.13 1021.01 1021.25 1021.74 1021.32 1020.65 1019.67 1018.75 1018.76 1018.18 1018.58 1018.78 1018.30 1018.11 1017.95 1018.01 1018.38 1017.94 1017.58 1017.42 1017.40 1017.35 1016.93 1016.96 1016.99 1016.95 1017.00 1017.22 1017.29 1017.34 1017.78 1018.08 1018.42 1018.20 1018.34 1018.39 1018.54 1018.56 1018.62 1018.89 1019.17 1019.30 1019.54 1019.83 1019.93 1019.94 1020.20 1020.49 1020.78 1021.00 1021.26 1021.40
1017.38 1018.07 1019.07 1019.80 1020.04 1020.13 1019.43 1019.25 1018.83 1018.47 1018.26 1018.09 1018.01 1017.84 1017.52 1017.29 1017.45 1017.98 1017.18 1016.35 1016.05 1016.61 1016.88 1016.92 1016.71 1016.45 1016.32 1016.25 1016.18 1016.26 1016.62 1017.01 1017.07 1017.18 1017.46 1017.62 1017.64 1017.69 1017.92 1018.18 1018.42 1018.53 1018.46 1018.57 1018.91 1019.17 1019.43 1019.69 1019.87 1020.05 1020.26 1020.48 1020.73 1020.92
1016.59 1017.14 1017.21 1017.50 1017.65 1018.03 1017.91 1017.32 1017.43 1017.62 1017.05 1016.76 1017.02 1016.65 1016.39 1016.47 1016.58 1016.48 1015.08 1015.15 1015.05 1015.61 1015.88 1016.00 1016.09 1015.91 1015.75 1015.66 1015.52 1015.46 1015.70 1016.01 1016.23 1016.45 1016.67 1017.00 1017.10 1017.01 1017.30 1017.47 1017.56 1017.57 1017.64 1017.98 1018.28 1018.53 1018.80 1019.09 1019.44 1019.77 1020.00 1020.28 1020.57 1020.89
1015.71 1015.74 1015.48 1015.21 1015.52 1016.03 1015.81 1015.73 1016.03 1015.94 1015.61 1015.80 1016.04 1015.74 1015.46 1015.77 1015.58 1015.02 1013.77 1013.69 1014.60 1014.11 1014.57 1014.97 1014.79 1014.93 1014.62 1014.54 1014.57 1014.47 1014.82 1015.18 1015.43 1015.62 1015.72 1016.20 1016.45 1016.64 1016.75 1016.88 1016.97 1016.94 1017.13 1017.48 1017.79 1018.14 1018.37 1018.54 1018.79 1019.18 1019.55 1019.99 1020.28 1020.57
1013.06 1012.77 1012.71 1012.59 1013.19 1013.33 1013.22 1013.81 1014.05 1014.09 1014.92 1015.23 1014.93 1015.08 1015.07 1015.29 1015.11 1013.40 1012.30 1012.93 1013.33 1013.16 1012.98 1013.00 1013.10 1013.63 1013.60 1013.55 1013.65 1013.78 1014.05 1014.46 1014.74 1014.86 1014.92 1015.51 1015.76 1015.90 1016.02 1016.34 1016.50 1016.55 1016.95 1017.11 1017.23 1017.76 1018.16 1018.28 1018.67 1019.03 1019.30 1019.53 1019.91 1020.29
1010.70 1010.46 1010.89 1010.59 1010.59 1011.20 1011.81 1012.57 1013.23 1013.71 1013.71 1013.46 1013.59 1014.24 1014.75 1014.22 1013.10 1011.55 1011.39 1011.53 1011.46 1011.65 1012.12 1012.08 1012.41 1012.63 1012.74 1012.91 1013.13 1013.24 1013.65 1013.82 1013.88 1014.16 1014.47 1014.88 1015.13 1015.28 1015.47 1015.65 1015.74 1016.07 1016.42 1016.86 1017.15 1017.40 1017.95 1018.23 1018.44 1018.60 1018.83 1018.97 1019.18 1019.43
1009.03 1009.02 1009.01 1009.06 1009.61 1010.11 1010.37 1011.24 1011.97 1012.20 1011.93 1011.85 1012.22 1012.43 1011.76 1011.37 1010.75 1010.89 1011.11 1010.67 1010.97 1011.34 1011.40 1011.44 1011.73 1011.83 1012.10 1012.57 1012.81 1012.83 1013.17 1013.53 1013.91 1014.32 1014.75 1014.92 1014.96 1015.14 1015.26 1015.39 1015.69 1015.87 1016.20 1016.59 1016.86 1017.23 1017.43 1017.68 1018.01 1018.16 1018.27 1018.60 1018.68 1018.78
1008.01 1007.91 1008.20 1008.43 1009.11 1009.30 1009.58 1009.90 1010.00 1009.86 1009.76 1010.07 1010.06 1010.52 1010.42 1010.44 1010.59 1010.73 1010.89 1010.98 1011.23 1011.25 1011.34 1011.49 1011.60 1011.71 1012.02 1012.41 1012.62 1012.64 1013.02 1013.51 1014.08 1014.50 1014.78 1015.09 1015.24 1014.96 1014.82 1015.08 1015.41 1015.57 1015.81 1016.23 1016.49 1016.73 1016.95 1017.24 1017.61 1017.73 1017.71 1017.90 1018.16 1018.31
1007.26 1006.73 1006.91 1007.48 1007.71 1007.85 1008.02 1008.11 1008.87 1009.22 1009.12 1009.15 1009.69 1010.40 1010.36 1010.08 1010.15 1010.02 1010.37 1010.68 1011.04 1011.28 1011.54 1011.95 1012.05 1012.28 1012.55 1012.69 1012.95 1013.18 1013.10 1013.40 1013.71 1014.15 1014.55 1014.57 1014.35 1014.11 1014.30 1014.52 1014.97 1015.37 1015.66 1016.08 1016.43 1016.62 1016.64 1017.00 1017.16 1017.36 1017.54 1017.54 1017.47 1017.66
1006.16 1006.22 1006.55 1006.73 1007.07 1007.28 1007.36 1007.83 1008.28 1008.63 1008.94 1009.05 1009.21 1009.58 1009.66 1009.98 1009.53 1009.54 1009.65 1009.79 1010.15 1011.06 1011.68 1012.03 1012.22 1012.37 1012.61 1012.76 1013.02 1013.22 1013.31 1013.40 1013.46 1013.53 1013.63 1013.70 1013.89 1014.12 1014.22 1014.49 1014.77 1015.14 1015.50 1015.83 1016.01 1016.24 1016.52 1016.64 1016.69 1016.82 1016.99 1016.94 1016.89 1016.93
1005.03 1005.41 1005.76 1006.21 1006.72 1007.34 1007.75 1008.05 1008.32 1008.49 1008.72 1009.07 1009.22 1009.47 1009.65 1009.73 1009.15 1008.80 1008.46 1009.28 1009.98 1010.39 1010.72 1011.06 1011.34 1011.31 1011.37 1011.52 1011.82 1012.04 1011.89 1011.85 1012.43 1012.62 1012.94 1013.19 1013.29 1013.39 1013.66 1014.05 1014.36 1014.73 1015.00 1015.28 1015.48 1015.62 1015.85 1015.99 1016.14 1016.27 1016.36 1016.40 1016.37 1016.37
1004.48 1004.90 1004.90 1005.36 1006.50 1007.08 1007.83 1008.17 1008.19 1008.39 1008.47 1008.36 1008.52 1008.77 1008.81 1008.76 1008.27 1007.97 1007.55 1007.80 1008.50 1008.87 1009.25 1009.32 1009.39 1009.58 1009.98 1010.46 1010.67 1010.81 1011.00 1011.06 1011.28 1011.60 1011.86 1012.14 1012.32 1012.65 1013.00 1013.23 1013.53 1014.02 1014.28 1014.54 1014.85 1015.04 1015.20 1015.35 1015.51 1015.67 1015.76 1015.75 1015.68 1015.66
Thickness
5516 5516 5515 5516 5517 5518 5521 5523 5526 5529 5532 5535 5538 5542 5545 5547 5548 5549 5547 5549 5542 5527 5515 5510 5502 5496 5493 5493 5485 5480 5480 5480 5472 5470 5460 5456 5452 5441 5428 5424 5410 5410 5412 5411 5424 5407 5380 5382 5390 5379 5369 5370 5381 5380
5514 5513 5513 5514 5513 5515 5518 5519 5522 5524 5527 5530 5533 5536 5539 5542 5543 5544 5544 5540 5536 5528 5516 5510 5505 5499 5493 5489 5482 5483 5475 5469 5463 5462 5467 5462 5455 5452 5443 5429 5431 5414 5406 5400 5398 5389 5380 5383 5377 5383 5391 5391 5392 5388
5511 5510 5509 5511 5511 5511 5514 5516 5518 5520 5522 5525 5528 5531 5534 5537 5539 5540 5541 5539 5535 5530 5520 5514 5508 5504 5499 5495 5491 5490 5480 5475 5471 5474 5466 5460 5447 5455 5442 5431 5434 5432 5434 5411 5403 5404 5401 5411 5409 5407 5405 5401 5401 5399
5508 5507 5506 5507 5507 5507 5510 5512 5513 5515 5517 5519 5521 5525 5527 5528 5531 5533 5532 5532 5535 5530 5514 5510 5512 5507 5503 5501 5497 5492 5485 5481 5479 5477 5469 5462 5447 5447 5437 5437 5434 5440 5441 5432 5423 5422 5410 5417 5412 5410 5411 5408 5405 5404
5505 5504 5503 5503 5503 5504 5506 5508 5508 5510 5511 5513 5515 5517 5521 5523 5525 5527 5527 5527 5527 5525 5523 5515 5514 5510 5507 5503 5500 5497 5492 5487 5480 5474 5470 5464 5460 5454 5449 5441 5425 5436 5432 5427 5415 5424 5421 5416 5414 5412 5410 5408 5407 5407
5502 5501 5500 5499 5500 5500 5501 5503 5503 5504 5506 5507 5509 5512 5515 5518 5521 5521 5508 5524 5523 5529 5524 5517 5515 5512 5510 5508 5503 5500 5498 5495 5489 5483 5476 5467 5461 5459 5460 5447 5442 5440 5440 5437 5430 5431 5430 5426 5424 5418 5414 5412 5410 5408
5498 5498 5497 5496 5496 5496 5497 5498 5499 5499 5501 5502 5503 5506 5509 5512 5515 5514 5518 5517 5517 5519 5524 5521 5519 5515 5512 5513 5510 5507 5503 5498 5493 5485 5485 5479 5473 5468 5465 5462 5457 5452 5449 5445 5442 5442 5435 5436 5432 5426 5424 5420 5419 5417
5495 5493 5492 5492 5491 5492 5493 5494 5494 5495 5496 5497 5497 5501 5503 5507 5507 5511 5508 5510 5513 5519 5523 5522 5521 5518 5515 5516 5510 5508 5507 5506 5498 5495 5491 5489 5482 5481 5470 5474 5469 5463 5458 5453 5450 5448 5446 5445 5440 5434 5431 5425 5424 5422
5490 5488 5487 5487 5486 5487 5487 5489 5489 5490 5491 5492 5492 5495 5498 5504 5501 5508 5504 5507 5510 5514 5517 5524 5521 5515 5518 5519 5516 5510 5507 5501 5502 5501 5501 5493 5494 5485 5490 5485 5479 5473 5467 5464 5459 5456 5455 5450 5445 5440 5436 5430 5428 5427
5484 5483 5482 5482 5480 5481 5481 5483 5483 5483 5485 5486 5488 5477 5472 5496 5495 5498 5503 5493 5491 5500 5516 5519 5538 5522 5521 5519 5517 5512 5510 5506 5502 5508 5505 5495 5503 5511 5506 5498 5489 5482 5476 5472 5466 5463 5460 5455 5451 5446 5442 5437 5435 5431
5477 5478 5477 5476 5474 5474 5474 5476 5477 5477 5478 5480 5471 5477 5488 5486 5494 5498 5479 5492 5503 5506 5516 5526 5532 5523 5520 5518 5519 5515 5507 5514 5508 5514 5506 5514 5517 5521 5515 5507 5499 5491 5485 5480 5476 5469 5465 5461 5457 5453 5448 5444 5441 5438
5470 5471 5470 5470 5469 5467 5466 5468 5471 5470 5473 5474 5483 5484 5482 5484 5486 5483 5493 5504 5509 5524 5526 5528 5525 5526 5517 5518 5516 5510 5512 5513 5511 5515 5509 5518 5536 5535 5523 5515 5507 5499 5492 5487 5482 5477 5472 5467 5462 5457 5454 5451 5446 5443
5463 5463 5463 5463 5462 5460 5459 5459 5462 5466 5469 5472 5475 5479 5478 5474 5471 5484 5491 5511 5520 5529 5527 5525 5519 5519 5513 5514 5512 5509 5505 5512 5517 5510 5520 5534 5543 5539 5528 5520 5512 5504 5498 5492 5487 5482 5476 5471 5466 5460 5458 5455 5449 5445
5454 5454 5454 5454 5454 5453 5451 5450 5451 5454 5460 5466 5465 5464 5481 5482 5496 5521 5528 5536 5537 5530 5524 5518 5515 5512 5514 5509 5506 5502 5514 5512 5511 5520 5533 5546 5545 5539 5531 5523 5515 5508 5502 5495 5489 5485 5481 5476 5471 5466 5460 5457 5448 5447
5442 5443 5442 5444 5444 5444 5442 5440 5440 5442 5458 5464 5477 5480 5506 5519 5525 5529 5533 5528 5529 5524 5520 5513 5508 5507 5505 5503 5500 5509 5500 5503 5523 5540 5548 5552 5544 5539 5531 5523 5517 5511 5505 5498 5493 5488 5483 5479 5474 5469 5466 5462 5459 5454
5427 5425 5429 5432 5432 5432 5429 5426 5426 5434 5453 5463 5481 5497 5516 5522 5518 5519 5519 5522 5522 5520 5517 5514 5507 5499 5501 5502 5501 5500 5507 5522 5541 5544 5548 5545 5539 5534 5528 5522 5516 5511 5506 5501 5496 5492 5488 5484 5479 5475 5472 5468 5460 5453
5413 5423 5426 5422 5417 5414 5414 5415 5417 5433 5445 5470 5484 5500 5510 5512 5513 5511 5514 5518 5516 5516 5512 5510 5499 5502 5508 5501 5509 5521 5525 5535 5538 5537 5538 5537 5536 5532 5527 5521 5515 5510 5506 5501 5498 5494 5491 5487 5482 5477 5473 5470 5467 5462
5410 5412 5413 5407 5402 5397 5397 5406 5418 5434 5452 5469 5480 5491 5497 5507 5509 5508 5510 5514 5510 5512 5512 5511 5515 5508 5503 5510 5520 5528 5529 5530 5530 5529 5529 5526 5528 5526 5522 5518 5513 5508 5504 5500 5497 5493 5490 5486 5482 5478 5474 5470 5468 5465
5401 5402 5399 5396 5391 5388 5387 5398 5415 5439 5461 5469 5476 5487 5494 5498 5505 5506 5509 5510 5506 5509 5510 5512 5508 5515 5518 5522 5522 5529 5530 5525 5523 5521 5519 5517 5515 5515 5513 5511 5509 5505 5502 5498 5495 5491 5488 5485 5481 5478 5475 5472 5469 5466
5384 5384 5383 5379 5375 5372 5375 5388 5405 5424 5455 5462 5468 5471 5484 5493 5496 5498 5502 5505 5500 5499 5502 5516 5516 5520 5518 5522 5526 5525 5527 5524 5521 5516 5512 5511 5509 5507 5505 5504 5502 5500 5497 5494 5492 5483 5486 5483 5479 5477 5474 5470 5466 5461
5356 5364 5361 5360 5355 5361 5372 5386 5399 5425 5440 5448 5461 5462 5469 5483 5486 5489 5491 5499 5491 5495 5508 5520 5516 5513 5517 5521 5521 5522 5522 5521 5517 5513 5511 5506 5506 5503 5502 5499 5495 5494 5492 5489 5487 5484 5475 5480 5475 5473 5470 5466 5461 5457
5349 5345 5339 5337 5343 5346 5361 5379 5404 5423 5430 5444 5446 5450 5460 5466 5474 5478 5484 5486 5491 5500 5510 5513 5517 5514 5512 5514 5514 5512 5513 5513 5508 5506 5499 5502 5501 5499 5496 5496 5495 5490 5487 5486 5483 5479 5479 5478 5474 5470 5464 5458 5456 5454
5325 5325 5326 5324 5332 5339 5361 5375 5389 5400 5411 5420 5431 5441 5450 5461 5465 5467 5471 5488 5497 5500 5504 5505 5508 5509 5510 5512 5513 5514 5510 5504 5503 5506 5505 5501 5498 5497 5493 5490 5486 5483 5484 5483 5478 5474 5471 5466 5464 5459 5459 5455 5451 5446
5315 5316 5321 5322 5328 5337 5352 5370 5384 5392 5409 5421 5420 5430 5445 5452 5460 5463 5480 5489 5497 5496 5499 5500 5502 5504 5505 5506 5509 5512 5510 5505 5501 5500 5500 5496 5493 5493 5489 5488 5486 5485 5483 5478 5474 5471 5467 5463 5457 5454 5449 5441 5436 5433
5305 5303 5307 5314 5322 5337 5353 5366 5377 5389 5403 5411 5415 5422 5436 5444 5447 5460 5481 5490 5487 5496 5497 5492 5496 5497 5501 5505 5508 5510 5507 5502 5499 5496 5498 5492 5488 5487 5485 5482 5481 5480 5476 5471 5467 5462 5459 5455 5450 5446 5443 5436 5433 5427
5305 5305 5312 5322 5333 5350 5368 5368 5376 5394 5389 5388 5404 5418 5428 5428 5432 5456 5483 5482 5484 5485 5491 5493 5496 5495 5498 5504 5505 5504 5502 5500 5497 5493 5494 5487 5485 5483 5479 5475 5472 5470 5466 5467 5464 5456 5453 5450 5443 5439 5435 5430 5424 5419
5307 5307 5311 5337 5353 5365 5368 5369 5373 5370 5367 5382 5401 5405 5406 5410 5432 5468 5478 5480 5486 5485 5486 5488 5489 5492 5495 5496 5495 5497 5495 5495 5494 5489 5486 5482 5480 5478 5476 5472 5470 5466 5462 5458 5455 5452 5444 5441 5437 5435 5429 5426 5422 5417
5305 5308 5322 5345 5350 5358 5360 5354 5344 5353 5376 5394 5400 5397 5415 5428 5449 5459 5462 5467 5467 5468 5474 5477 5481 5485 5487 5485 5485 5487 5484 5482 5479 5476 5472 5471 5470 5468 5466 5464 5461 5458 5454 5449 5446 5442 5440 5435 5431 5429 5425 5419 5416 5413
5303 5315 5330 5326 5331 5334 5341 5343 5359 5380 5397 5401 5401 5405 5418 5431 5435 5433 5434 5440 5445 5452 5458 5460 5464 5468 5472 5469 5471 5475 5474 5470 5466 5458 5456 5455 5454 5456 5458 5456 5451 5449 5446 5440 5436 5433 5432 5428 5423 5420 5419 5415 5408 5404
5301 5323 5326 5325 5327 5332 5351 5368 5368 5375 5385 5391 5395 5395 5402 5411 5414 5415 5419 5424 5430 5433 5435 5438 5443 5445 5448 5450 5451 5452 5453 5453 5453 5450 5445 5445 5448 5454 5451 5448 5442 5437 5435 5430 5425 5422 5420 5416 5413 5408 5405 5404 5403 5397
5311 5317 5316 5322 5327 5342 5348 5351 5351 5358 5362 5365 5371 5378 5388 5390 5398 5404 5412 5419 5421 5416 5417 5421 5424 5428 5430 5432 5431 5433 5437 5437 5436 5437 5438 5439 5438 5437 5438 5433 5429 5425 5421 5417 5414 5411 5407 5406 5404 5400 5395 5394 5393 5390
5307 5305 5311 5314 5325 5325 5327 5331 5338 5342 5344 5349 5356 5356 5362 5368 5385 5400 5408 5402 5402 5405 5407 5409 5414 5420 5420 5422 5423 5426 5431 5433 5429 5429 5427 5428 5428 5427 5424 5420 5417 5413 5410 5406 5403 5400 5397 5395 5392 5389 5386 5384 5382 5379
5301 5304 5317 5318 5310 5312 5312 5318 5326 5330 5333 5343 5349 5353 5357 5366 5379 5389 5399 5400 5398 5398 5401 5406 5410 5412 5414 5414 5416 5418 5420 5423 5423 5421 5420 5419 5418 5415 5412 5410 5408 5402 5399 5396 5391 5389 5387 5384 5381 5378 5375 5373 5372 5370